Volver al catálogo

FENGYUN 1C DEB

ActivoPO
NORAD 35154·DEBRIS·🇨🇳 China

Lanzado May 10, 1999 desde Taiyuan Satellite Launch Center

Loading…

Próximos Pases (próximas 24 horas)

TLE

ActualizadoSource: Space-Track

Época: Sep 12, 2026, 04:58 UTC

1 35154U 99025DMJ 26255.20705385  .00000321  00000-0  15166-3 0  9991
2 35154  99.4568  39.4616 0177715 352.8071   7.0558 14.19376690684564

Sigue FENGYUN 1C DEB en tiempo real con AllMySat

Download on the App Store